Regional Weather Roundup
Issued by NWS

Home | Current Version | Previous Version | Text Only | Print | Product List | Glossary On
Versions: 1 2 3 4 5 6 7 8 9 10 11 12 13 14 15 16 17 18 19 20 21 22 23 24 25 26 27 28 29 30 31 32 33 34 35 36 37 38 39 40 41 42 43 44 45 46 47 48 49 50
000
ASUS42 KTBW 100410
RWRFL
FLORIDA REGIONAL WEATHER ROUNDUP
NATIONAL WEATHER SERVICE TAMPA BAY RUSKIN FL
1200 AM EDT THU JUL 10 2014

NOTE: "FAIR" INDICATES FEW OR NO CLOUDS BELOW 12,000 FEET WITH NO
SIGNIFICANT WEATHER AND/OR OBSTRUCTIONS TO VISIBILITY.


FLZ001>010-012>015-112-114-115-100500-
PANHANDLE FLORIDA

CITY           SKY/WX    TMP DP  RH WIND       PRES   REMARKS
PENSACOLA      PTCLDY    76  69  79 CALM      30.07R
PENSACOLA NAS  MOCLDY    73  71  93 CALM      30.07R
MILTON NAS     PTCLDY    74  71  91 CALM      30.07S FOG
CRESTVIEW      CLEAR     73  72  96 CALM      30.09R
DUKE FIELD     PTCLDY    74  74 100 SE3       30.08R
VALPARAISO     MOCLDY    79  75  89 W5        30.07S
TRI COUNTY     FAIR      73  72  96 CALM      30.08S THUNDER
PANAMA CITY    FAIR      76  72  87 S3        30.07S
TYNDALL AFB    HVY RAIN  75  72  88 W12       30.09R FOG
APALACHICOLA   PTCLDY    82  74  76 SW7       30.07F

STATION/POSITION SKY/WX   TEMP    WIND        PRES    WAVE   SWELL
                          AIR SEA DIR/SP/G            HT/PER HT/PER
                          (F)     (DEG/KT/KT) (MB)    (FT/S) (FT/S)
30.1N   87.6W              83 84  230/  8/ 10 1018.3R   1/ 3
29.2N   88.2W              83 86  200/  8/ 10 1018.9R
28.8N   86.0W              83 85  200/ 10/ 12 1019.3R   1/ 8
PANAMA CITY BEAC           79 82  290/  5/  7 1018.4S
CAPE SAN BLAS    NOT AVBL
TOWER C                    82     230/ 11/ 12 1018.5F
28.5N   84.5W              84 86  240/  6/  8 1018.8F   1/ 8

$$
FLZ011-016>038-118-127-128-134-139-239-100500-
NORTH FLORIDA

CITY           SKY/WX    TMP DP  RH WIND       PRES   REMARKS
MARIANNA       MOCLDY    76  73  91 SW5       30.07S
TALLAHASSEE    CLEAR     78  72  81 W5        30.09R
PERRY          CLEAR    N/A N/A N/A CALM      30.08F
CROSS CITY       N/A     78  73  84 CALM      30.08S
GAINESVILLE    PTCLDY    78  73  84 W8        30.09S
MAYPORT NAS    PTCLDY    80  73  79 S9        30.07S
JACKSONVILLE   PTCLDY    79  74  84 W6        30.08R
JAX NAS        PTCLDY    84  74  71 S9        30.09S
JAX CRAIG      CLEAR     81  74  79 SW8       30.08S
JAX CECIL      PTCLDY    77  73  88 S3        30.09S
FERNANDINA BEA FAIR      81  73  78 W6        30.07R
ST AUGUSTINE   CLEAR     79  72  79 SW5       30.09S

STATION/POSITION SKY/WX   TEMP    WIND        PRES    WAVE   SWELL
                          AIR SEA DIR/SP/G            HT/PER HT/PER
                          (F)     (DEG/KT/KT) (MB)    (FT/S) (FT/S)
SHELL POINT                82     250/  9/ 11   N/A
KEATON BEACH               83     260/ 12/ 15 1018.5F
CEDAR KEY                  84     250/  7/ 10 1019.0F
FERNANDINA                 81 85  250/  5/  8 1018.1R
30.7N   81.3W                 83                N/A     4/ 5
MAYPORT                    80 84  210/  7/ 11   N/A
31.4N   80.9W              83 84  190/ 17/ 21 1017.8R   5/ 5   2/ 9
ST AUGUSTINE               78     230/  5/  7 1019.3S

$$
FLZ040-043>046-052-053-057-058-063-144-100500-
INTERIOR CENTRAL FLORIDA

CITY           SKY/WX    TMP DP  RH WIND       PRES   REMARKS
OCALA          CLEAR     75  68  78 CALM      30.10S
LEESBURG       CLEAR     78  75  90 S3        30.11S
SANFORD        PTCLDY    75  74  96 W6        30.10S
ORLANDO INTL   MOCLDY    75  73  93 S5        30.11S
WINTER HAVEN   MOCLDY    78  71  79 SE5       30.12R
LAKELAND         N/A     73  73 100 SE3       30.11S
BARTOW         FAIR      75  75 100 SE7       30.12R
OKEECHOBEE     MOCLDY    73  73 100 MISG      30.13R

$$
FLZ041-047-054-059-064-141-147-100500-
EAST CENTRAL FLORIDA

CITY           SKY/WX    TMP DP  RH WIND       PRES   REMARKS
DAYTONA BEACH  MOCLDY    74  72  93 S5        30.09F
DELAND           N/A    N/A N/A N/A MISG        N/A
JFK SPACE CTR  CLOUDY    75  74  95 S5        30.11R
CAPE CANAVERAL MOCLDY    75  73  93 S2        30.10R
PATRICK AFB    MOCLDY    77  72  83 S5        30.11S
MELBOURNE      MOCLDY    75  72  90 CALM      30.11R
VERO BEACH     MOCLDY    74  74 100 S7        30.11S
FT PIERCE      CLOUDY    75  72  90 W3        30.11S
STUART           N/A    N/A N/A N/A MISG        N/A

STATION/POSITION SKY/WX   TEMP    WIND        PRES    WAVE   SWELL
                          AIR SEA DIR/SP/G            HT/PER HT/PER
                          (F)     (DEG/KT/KT) (MB)    (FT/S) (FT/S)
28.5N   80.2W              80 83  260/  8/  8 1019.7R
28.9N   78.5W              81 83  170/ 12/ 14 1020.1F   3/ 8   2/ 8
TRIDENT PIER               78 85  190/  7/  8 1018.8R
28.4N   80.5W                 84                N/A     2/ 8
27.6N   80.2W                 83                N/A     2/ 9

$$
FLZ050-056-061-142-242-148-248-149-249-151-251-155-255-
160-260-100500-
WEST CENTRAL FLORIDA

CITY           SKY/WX    TMP DP  RH WIND       PRES   REMARKS
CRYSTAL RIVER  FAIR      75  73  94 CALM      30.09S
INVERNESS      FAIR      73  72  94 CALM      30.10S
BROOKSVILLE    CLEAR     74  72  93 SE5       30.10F
ZEPHYRHILLS    FAIR      72  72 100 CALM      30.11R
CLEARWATER     MOCLDY    79  75  87 CALM      30.09F
TAMPA INTL     MOCLDY    78  72  81 W5        30.09F
TAMPA EXEC       N/A    N/A N/A N/A MISG        N/A
PLANT CITY     PTCLDY    75 N/A N/A CALM      30.12S
MACDILL AFB    CLOUDY    77  76  99 W2        30.09F
PETER O KNIGHT MOCLDY    81  73  78 CALM      30.09F
ST PETERSBURG  CLOUDY    82  75  79 NW5       30.08S
SARASOTA       CLOUDY    84  72  67 CALM      30.08F
VENICE         FAIR      79  75  89 CALM      30.10S

STATION/POSITION SKY/WX   TEMP    WIND        PRES    WAVE   SWELL
                          AIR SEA DIR/SP/G            HT/PER HT/PER
                          (F)     (DEG/KT/KT) (MB)    (FT/S) (FT/S)
CEDAR KEY                  84     250/  7/ 10 1019.0F
28.5N   84.5W              84 86  240/  6/  8 1018.8F   1/ 8
27.3N   84.3W                 84                N/A     1
CLEARWATER BEACH           83 87  230/  5/  7 1018.7F
MIDDLE TAMPA BAY           83     250/  3/  4 1019.2F
VENICE                     83 87  250/  4/  4 1018.7R

$$
FLZ066-069-070-075>078-162-262-165-265-100500-
SOUTHWEST FLORIDA AND KEYS

CITY           SKY/WX    TMP DP  RH WIND       PRES   REMARKS
PUNTA GORDA    MOCLDY    79  74  84 SE5       30.11S
FT MYERS       PTCLDY    78  73  84 S6        30.10R
SOUTHWEST INTL PTCLDY    77  72  84 S8        30.10S
NAPLES         PTCLDY    78  74  87 SE7       30.10S
MARATHON       CLOUDY    82  73  74 E7        30.10F
KEY WEST NAS   PTCLDY    83  76  79 SE10      30.10F
KEY WEST INTL  PTCLDY    84  74  71 SE12      30.11S

STATION/POSITION SKY/WX   TEMP    WIND        PRES    WAVE   SWELL
                          AIR SEA DIR/SP/G            HT/PER HT/PER
                          (F)     (DEG/KT/KT) (MB)    (FT/S) (FT/S)
VENICE                     83 87  250/  4/  4 1018.7R
NAPLES                     78     120/  5/  8 1019.9F
DRY TORTUGAS               85     130/  5/  6 1019.4F
NW FL BAY                  84     130/ 11/ 13 1019.8R
SAND KEY                   83     120/ 16/ 19 1019.4S
SOMBRERO KEY               82     100/ 10/ 11 1020.0F
LONG KEY                   81 88  130/  9/ 11 1020.5R
MOLASSES REEF              81 85  140/ 12/ 13 1019.5F

$$
FLZ067-068-071>074-168-172>174-100500-
SOUTHEAST FLORIDA

CITY           SKY/WX    TMP DP  RH WIND       PRES   REMARKS
W PALM BEACH   CLOUDY    75  72  90 CALM      30.11S
FT LAUDER-EXEC MOCLDY    77  75  93 CALM      30.12R
FT LAUDERDALE  MOCLDY    79  72  79 CALM      30.11S
POMPANO BEACH  MOCLDY    75  74  96 CALM      30.12S
PEMBROKE PINES MOCLDY    75  74  96 CALM      30.13S
OPA LOCKA      MOCLDY    76  73  91 SE3       30.12S
MIAMI          MOCLDY    77  72  84 SE3       30.12S
WEST KENDALL   PTCLDY    76  74  93 SE3       30.11F
HOMESTEAD      PTCLDY    75  54  46 CALM      30.12R

STATION/POSITION SKY/WX   TEMP    WIND        PRES    WAVE   SWELL
                          AIR SEA DIR/SP/G            HT/PER HT/PER
                          (F)     (DEG/KT/KT) (MB)    (FT/S) (FT/S)
PORT EVERGLADES            81     150/  8/ 11 1019.7
VIRGINIA KEY               81 85  130/  5/  6   N/A
LAKE WORTH                 78 84              1019.4S
FOWEY ROCKS                81 84  120/ 10/ 11 1019.9S
SETTLEMENT POINT           80     130/  7/  8 1020.8F

$$



USA.gov is the U.S. government's official web portal to all federal, state and local government web resources and services.